Location: Recife
(8.0585°S, 34.8848°W)
Time: 11:16:32
(UTC-03:00)

Vanguard 2 Rocket - Pass Details

Date: 20 April 2026
Orbit: 553 x 3286 km, 32.9° (Epoch: 7 May)

Event Time Altitude Azimuth Distance (km) Brightness Sun altitude
Rises 10:43:11 0° 229° (SW) 5,830 10.8 68.4°
Reaches altitude 10° 10:46:49 10° 223° (SW) 5,142 10.6 68.8°
Maximum altitude 11:02:44 49° 151° (SSE) 3,749 10.6 69.9°
Drops below altitude 10° 11:21:47 10° 81° (E) 6,095 11.3 70.3°
Sets 11:26:30 0° 75° (ENE) 6,939 11.4 70.2°
